Location: Unspecified
(0.0000°N, 0.0000°E)
Time: 10:23:33
(UTC+00:00)

A-11 Canister half - Pass Details

Date: 01 August 2021
Orbit: 1515 x 1685 km, 47.2° (Epoch: 27 September)

Event Time Altitude Azimuth Distance (km) Brightness Sun altitude
Rises 12:27:24 0° 202° (SSW) 4,658 11.4 71.4°
Reaches altitude 10° 12:30:49 10° 193° (SSW) 3,681 11.0 71.1°
Maximum altitude 12:39:02 35° 130° (SE) 2,283 10.2 70.4°
Drops below altitude 10° 12:47:23 10° 68° (ENE) 3,758 11.2 69.5°
Sets 12:50:51 0° 60° (ENE) 4,766 11.6 69.0°
